Wetterdaten: Montag, 27.05.2013
Datum Zeit Temperatur Luftfeuchte Luftdruck Regen Wind Richtung Richtung Taupunkt Windchill Windben
27.05.2013 00:00 3,8 C 92 % 1013,2 hPa 0,0 l/m 9,5 km/h (2 Bft) S 180 2,6 C -1,9 C 11,6 km/h (2 Bft)
27.05.2013 00:05 3,8 C 92 % 1013,3 hPa 0,0 l/m 8,9 km/h (2 Bft) S 180 2,6 C -1,2 C 10,6 km/h (2 Bft)
27.05.2013 00:10 3,8 C 92 % 1013,3 hPa 0,0 l/m 7,9 km/h (2 Bft) S 180 2,6 C -0,1 C 10,6 km/h (2 Bft)
27.05.2013 00:15 3,8 C 92 % 1013,3 hPa 0,0 l/m 8,0 km/h (2 Bft) S-SO 157 2,6 C -0,3 C 13,2 km/h (3 Bft)
27.05.2013 00:20 3,8 C 93 % 1013,3 hPa 0,0 l/m 7,7 km/h (2 Bft) SW 225 2,8 C 0,1 C 18,0 km/h (3 Bft)
27.05.2013 00:25 3,9 C 93 % 1013,1 hPa 0,0 l/m 8,4 km/h (2 Bft) S 180 2,9 C -0,7 C 15,1 km/h (3 Bft)
27.05.2013 00:30 3,8 C 93 % 1013,1 hPa 0,0 l/m 8,4 km/h (2 Bft) S 180 2,8 C -0,7 C 10,0 km/h (2 Bft)
27.05.2013 00:35 3,9 C 93 % 1013,1 hPa 0,0 l/m 8,4 km/h (2 Bft) S-SW 202 2,9 C -0,7 C 6,3 km/h (2 Bft)
27.05.2013 00:40 3,9 C 93 % 1013,1 hPa 0,0 l/m 8,0 km/h (2 Bft) NO 45 2,9 C -0,1 C 18,5 km/h (3 Bft)
27.05.2013 00:45 3,9 C 93 % 1013,1 hPa 0,0 l/m 7,6 km/h (2 Bft) S-SO 157 2,9 C 0,4 C 6,6 km/h (2 Bft)
27.05.2013 00:50 3,9 C 93 % 1013,1 hPa 0,0 l/m 8,4 km/h (2 Bft) S-SO 157 2,9 C -0,5 C 19,0 km/h (3 Bft)
27.05.2013 00:55 3,9 C 93 % 1013,1 hPa 0,0 l/m 8,5 km/h (2 Bft) W-SW 247 2,9 C -0,6 C 6,8 km/h (2 Bft)
27.05.2013 01:00 4,0 C 93 % 1013,1 hPa 0,7 l/m 9,5 km/h (2 Bft) S 180 3,0 C -1,6 C 19,5 km/h (3 Bft)
27.05.2013 01:05 4,1 C 92 % 1013,0 hPa 0,0 l/m 10,0 km/h (2 Bft) S 180 2,9 C -2,1 C 9,5 km/h (2 Bft)
27.05.2013 01:10 4,1 C 92 % 1013,0 hPa 0,0 l/m 10,0 km/h (2 Bft) S 180 2,9 C -2,1 C 12,6 km/h (3 Bft)
27.05.2013 01:15 4,2 C 92 % 1013,0 hPa 0,0 l/m 10,5 km/h (2 Bft) S 180 3,0 C -2,5 C 15,6 km/h (3 Bft)
27.05.2013 01:20 4,2 C 91 % 1013,0 hPa 0,0 l/m 12,7 km/h (3 Bft) S-SW 202 2,9 C -4,6 C 27,4 km/h (4 Bft)
27.05.2013 01:25 4,2 C 91 % 1013,0 hPa 0,0 l/m 11,7 km/h (2 Bft) SO 135 2,9 C -3,8 C 10,6 km/h (2 Bft)
27.05.2013 01:30 4,2 C 91 % 1013,0 hPa 0,0 l/m 9,5 km/h (2 Bft) S 180 2,9 C -1,5 C 14,0 km/h (3 Bft)
27.05.2013 01:35 4,2 C 91 % 1013,0 hPa 0,0 l/m 9,2 km/h (2 Bft) S 180 2,9 C -1,0 C 8,2 km/h (2 Bft)
27.05.2013 01:40 4,2 C 91 % 1013,0 hPa 0,0 l/m 9,2 km/h (2 Bft) O-SO 112 2,9 C -1,0 C 6,4 km/h (2 Bft)
27.05.2013 01:45 4,2 C 91 % 1013,0 hPa 0,0 l/m 9,3 km/h (2 Bft) S-SW 202 2,9 C -1,2 C 7,1 km/h (2 Bft)
27.05.2013 01:50 4,1 C 91 % 1013,0 hPa 0,0 l/m 10,0 km/h (2 Bft) S 180 2,8 C -2,0 C 14,2 km/h (3 Bft)
27.05.2013 01:55 4,1 C 91 % 1013,0 hPa 0,0 l/m 9,3 km/h (2 Bft) S 180 2,8 C -1,2 C 9,2 km/h (2 Bft)
27.05.2013 02:00 4,1 C 92 % 1013,0 hPa 0,0 l/m 8,0 km/h (2 Bft) S 180 2,9 C 0,2 C 13,4 km/h (3 Bft)
27.05.2013 02:05 4,1 C 92 % 1012,9 hPa 0,0 l/m 9,0 km/h (2 Bft) S 180 2,9 C -0,9 C 16,4 km/h (3 Bft)
27.05.2013 02:10 4,1 C 91 % 1012,9 hPa 0,0 l/m 10,1 km/h (2 Bft) S 180 2,8 C -2,1 C 10,9 km/h (2 Bft)
27.05.2013 02:15 4,1 C 91 % 1012,9 hPa 0,0 l/m 9,3 km/h (2 Bft) S-SO 157 2,8 C -1,2 C 7,9 km/h (2 Bft)
27.05.2013 02:20 4,1 C 92 % 1012,9 hPa 0,0 l/m 9,3 km/h (2 Bft) S 180 2,9 C -1,3 C 12,1 km/h (2 Bft)
27.05.2013 02:25 4,1 C 92 % 1012,6 hPa 0,0 l/m 9,2 km/h (2 Bft) S 180 2,9 C -1,2 C 7,9 km/h (2 Bft)
27.05.2013 02:30 4,0 C 92 % 1012,6 hPa 0,0 l/m 9,3 km/h (2 Bft) S 180 2,8 C -1,3 C 11,6 km/h (2 Bft)
27.05.2013 02:35 4,1 C 92 % 1012,6 hPa 0,0 l/m 10,1 km/h (2 Bft) S 180 2,9 C -2,2 C 20,9 km/h (4 Bft)
27.05.2013 02:40 4,0 C 92 % 1012,6 hPa 0,0 l/m 10,9 km/h (2 Bft) S 180 2,8 C -3,0 C 15,0 km/h (3 Bft)
27.05.2013 02:45 4,1 C 92 % 1012,6 hPa 0,0 l/m 11,3 km/h (2 Bft) S 180 2,9 C -3,5 C 9,7 km/h (2 Bft)
27.05.2013 02:50 4,0 C 92 % 1012,6 hPa 0,0 l/m 10,1 km/h (2 Bft) S 180 2,8 C -2,2 C 12,6 km/h (3 Bft)
27.05.2013 02:55 4,0 C 92 % 1012,6 hPa 0,0 l/m 8,9 km/h (2 Bft) S 180 2,8 C -0,9 C 8,7 km/h (2 Bft)
27.05.2013 03:00 4,0 C 92 % 1012,6 hPa 0,0 l/m 8,9 km/h (2 Bft) S 180 2,8 C -0,9 C 12,2 km/h (2 Bft)
27.05.2013 03:05 4,0 C 92 % 1012,6 hPa 0,0 l/m 9,5 km/h (2 Bft) S-SO 157 2,8 C -1,6 C 12,7 km/h (3 Bft)
27.05.2013 03:10 4,1 C 92 % 1012,6 hPa 0,7 l/m 10,8 km/h (2 Bft) S 180 2,9 C -3,0 C 11,4 km/h (2 Bft)
27.05.2013 03:15 4,0 C 92 % 1012,6 hPa 0,0 l/m 9,7 km/h (2 Bft) S 180 2,8 C -1,8 C 11,1 km/h (2 Bft)
27.05.2013 03:20 4,0 C 92 % 1012,6 hPa 0,0 l/m 8,9 km/h (2 Bft) S 180 2,8 C -1,0 C 10,6 km/h (2 Bft)
27.05.2013 03:25 4,0 C 92 % 1012,4 hPa 0,0 l/m 10,3 km/h (2 Bft) O-SO 112 2,8 C -2,5 C 13,5 km/h (3 Bft)
27.05.2013 03:30 4,0 C 92 % 1012,4 hPa 0,0 l/m 10,0 km/h (2 Bft) S-SO 157 2,8 C -2,1 C 15,8 km/h (3 Bft)
27.05.2013 03:35 4,0 C 92 % 1012,4 hPa 0,0 l/m 9,5 km/h (2 Bft) S 180 2,8 C -1,6 C 6,6 km/h (2 Bft)
27.05.2013 03:40 4,0 C 92 % 1012,4 hPa 0,0 l/m 8,9 km/h (2 Bft) S 180 2,8 C -0,9 C 9,0 km/h (2 Bft)
27.05.2013 03:45 4,1 C 92 % 1012,4 hPa 0,0 l/m 9,7 km/h (2 Bft) S 180 2,9 C -1,7 C 18,2 km/h (3 Bft)
27.05.2013 03:50 4,1 C 92 % 1012,4 hPa 0,0 l/m 11,7 km/h (2 Bft) S 180 2,9 C -3,8 C 30,4 km/h (5 Bft)
27.05.2013 03:55 4,1 C 92 % 1012,4 hPa 0,0 l/m 12,1 km/h (2 Bft) S 180 2,9 C -4,0 C 15,0 km/h (3 Bft)
27.05.2013 04:00 4,2 C 92 % 1012,4 hPa 0,0 l/m 10,8 km/h (2 Bft) S 180 3,0 C -2,7 C 11,1 km/h (2 Bft)
27.05.2013 04:05 4,2 C 92 % 1012,4 hPa 0,0 l/m 10,3 km/h (2 Bft) S 180 3,0 C -2,3 C 9,5 km/h (2 Bft)
27.05.2013 04:10 4,2 C 91 % 1012,4 hPa 0,0 l/m 10,5 km/h (2 Bft) W-SW 247 2,9 C -2,5 C 32,8 km/h (5 Bft)
27.05.2013 04:15 4,2 C 91 % 1012,4 hPa 0,0 l/m 11,1 km/h (2 Bft) S 180 2,9 C -3,1 C 18,0 km/h (3 Bft)
27.05.2013 04:20 4,1 C 91 % 1012,4 hPa 0,0 l/m 9,8 km/h (2 Bft) O-NO 67 2,8 C -1,7 C 10,1 km/h (2 Bft)
27.05.2013 04:25 4,2 C 91 % 1012,3 hPa 0,0 l/m 9,3 km/h (2 Bft) SO 135 2,9 C -1,2 C 13,7 km/h (3 Bft)
27.05.2013 04:30 4,1 C 91 % 1012,3 hPa 0,0 l/m 9,2 km/h (2 Bft) S 180 2,8 C -0,9 C 10,5 km/h (2 Bft)
27.05.2013 04:35 4,1 C 91 % 1012,3 hPa 0,0 l/m 9,7 km/h (2 Bft) S 180 2,8 C -1,4 C 17,1 km/h (3 Bft)
27.05.2013 04:40 4,0 C 91 % 1012,3 hPa 0,0 l/m 8,7 km/h (2 Bft) S 180 2,7 C -0,4 C 5,6 km/h (1 Bft)
27.05.2013 04:45 4,0 C 92 % 1012,4 hPa 0,0 l/m 9,2 km/h (2 Bft) S 180 2,8 C -0,9 C 11,1 km/h (2 Bft)
27.05.2013 04:50 4,0 C 92 % 1012,4 hPa 0,7 l/m 9,2 km/h (2 Bft) O 90 2,8 C -0,9 C 12,1 km/h (2 Bft)
27.05.2013 04:55 4,0 C 92 % 1012,4 hPa 0,0 l/m 9,7 km/h (2 Bft) O-SO 112 2,8 C -1,4 C 13,4 km/h (3 Bft)
27.05.2013 05:00 4,0 C 92 % 1012,4 hPa 0,0 l/m 8,7 km/h (2 Bft) S-SO 157 2,8 C -0,4 C 10,3 km/h (2 Bft)
27.05.2013 05:05 4,0 C 92 % 1012,2 hPa 0,0 l/m 7,6 km/h (2 Bft) O-SO 112 2,8 C 0,9 C 9,7 km/h (2 Bft)
27.05.2013 05:10 4,0 C 92 % 1012,2 hPa 0,0 l/m 7,4 km/h (2 Bft) O-SO 112 2,8 C 1,1 C 8,9 km/h (2 Bft)
27.05.2013 05:15 4,0 C 92 % 1012,2 hPa 0,0 l/m 7,2 km/h (2 Bft) S 180 2,8 C 1,4 C 9,7 km/h (2 Bft)
27.05.2013 05:20 4,1 C 92 % 1012,2 hPa 0,0 l/m 7,6 km/h (2 Bft) S 180 2,9 C 1,0 C 6,0 km/h (2 Bft)
27.05.2013 05:25 4,1 C 92 % 1012,1 hPa 0,0 l/m 7,7 km/h (2 Bft) SO 135 2,9 C 0,8 C 10,8 km/h (2 Bft)
27.05.2013 05:30 4,2 C 91 % 1012,1 hPa 0,0 l/m 8,0 km/h (2 Bft) O-SO 112 2,9 C 0,7 C 15,8 km/h (3 Bft)
27.05.2013 05:35 4,1 C 91 % 1012,1 hPa 0,0 l/m 8,2 km/h (2 Bft) S 180 2,8 C 0,5 C 12,4 km/h (3 Bft)
27.05.2013 05:40 4,2 C 91 % 1012,1 hPa 0,0 l/m 9,0 km/h (2 Bft) S 180 2,9 C -0,2 C 10,0 km/h (2 Bft)
27.05.2013 05:45 4,2 C 90 % 1012,6 hPa 0,0 l/m 10,1 km/h (2 Bft) S 180 2,7 C -1,2 C 13,5 km/h (3 Bft)
27.05.2013 05:50 4,3 C 90 % 1012,6 hPa 0,0 l/m 10,0 km/h (2 Bft) S-SO 157 2,8 C -0,9 C 15,0 km/h (3 Bft)
27.05.2013 05:55 4,4 C 90 % 1012,6 hPa 0,0 l/m 9,7 km/h (2 Bft) O 90 2,9 C -0,6 C 13,0 km/h (3 Bft)
27.05.2013 06:00 4,4 C 90 % 1012,6 hPa 0,0 l/m 10,1 km/h (2 Bft) S 180 2,9 C -0,8 C 9,5 km/h (2 Bft)
27.05.2013 06:05 4,5 C 90 % 1012,8 hPa 0,0 l/m 9,7 km/h (2 Bft) SW 225 3,0 C -0,2 C 7,1 km/h (2 Bft)
27.05.2013 06:10 4,5 C 89 % 1012,8 hPa 0,0 l/m 9,5 km/h (2 Bft) S 180 2,8 C 0,0 C 14,8 km/h (3 Bft)
27.05.2013 06:15 4,5 C 89 % 1012,8 hPa 0,0 l/m 10,1 km/h (2 Bft) SO 135 2,8 C -0,7 C 14,5 km/h (3 Bft)
27.05.2013 06:20 4,6 C 89 % 1012,8 hPa 0,0 l/m 11,7 km/h (2 Bft) S 180 2,9 C -2,0 C 14,5 km/h (3 Bft)
27.05.2013 06:25 4,6 C 89 % 1013,1 hPa 0,0 l/m 10,8 km/h (2 Bft) S 180 2,9 C -1,1 C 7,2 km/h (2 Bft)
27.05.2013 06:30 4,6 C 88 % 1013,1 hPa 0,0 l/m 9,0 km/h (2 Bft) S 180 2,8 C 0,9 C 11,4 km/h (2 Bft)
27.05.2013 06:35 4,5 C 89 % 1013,1 hPa 0,0 l/m 7,6 km/h (2 Bft) S-SO 157 2,8 C 2,4 C 9,7 km/h (2 Bft)
27.05.2013 06:40 4,6 C 89 % 1013,1 hPa 0,0 l/m 7,6 km/h (2 Bft) S 180 2,9 C 2,2 C 9,7 km/h (2 Bft)
27.05.2013 06:45 4,6 C 89 % 1013,4 hPa 0,0 l/m 8,4 km/h (2 Bft) S 180 2,9 C 1,4 C 14,6 km/h (3 Bft)
27.05.2013 06:50 4,6 C 89 % 1013,4 hPa 0,0 l/m 8,7 km/h (2 Bft) SW 225 2,9 C 1,0 C 10,0 km/h (2 Bft)
27.05.2013 06:55 4,6 C 89 % 1013,4 hPa 0,0 l/m 7,6 km/h (2 Bft) S-SO 157 2,9 C 2,1 C 14,2 km/h (3 Bft)
27.05.2013 07:00 4,7 C 88 % 1013,4 hPa 0,0 l/m 8,2 km/h (2 Bft) SO 135 2,9 C 1,5 C 12,7 km/h (3 Bft)
27.05.2013 07:05 4,7 C 88 % 1013,8 hPa 0,0 l/m 9,2 km/h (2 Bft) S-SW 202 2,9 C 0,5 C 13,0 km/h (3 Bft)
27.05.2013 07:10 4,9 C 88 % 1013,8 hPa 0,0 l/m 9,5 km/h (2 Bft) S 180 3,1 C 0,4 C 10,6 km/h (2 Bft)
27.05.2013 07:15 4,9 C 88 % 1013,8 hPa 0,0 l/m 9,5 km/h (2 Bft) S 180 3,1 C 0,4 C 10,6 km/h (2 Bft)
27.05.2013 07:20 5,0 C 87 % 1013,8 hPa 0,0 l/m 10,0 km/h (2 Bft) S-SW 202 3,0 C -0,0 C 12,6 km/h (3 Bft)
27.05.2013 07:25 5,0 C 87 % 1013,8 hPa 0,0 l/m 9,5 km/h (2 Bft) S 180 3,0 C 0,5 C 9,7 km/h (2 Bft)
27.05.2013 07:30 5,0 C 87 % 1013,8 hPa 0,0 l/m 9,5 km/h (2 Bft) S-SO 157 3,0 C 0,5 C 13,5 km/h (3 Bft)
27.05.2013 07:35 5,0 C 87 % 1013,8 hPa 0,0 l/m 10,9 km/h (2 Bft) S-SO 157 3,0 C -0,9 C 20,8 km/h (4 Bft)
27.05.2013 07:40 5,1 C 87 % 1013,8 hPa 0,0 l/m 10,9 km/h (2 Bft) W-SW 247 3,1 C -0,7 C 13,4 km/h (3 Bft)
27.05.2013 07:45 5,2 C 87 % 1013,9 hPa 0,0 l/m 10,5 km/h (2 Bft) SO 135 3,2 C -0,2 C 18,0 km/h (3 Bft)
27.05.2013 07:50 5,3 C 87 % 1013,9 hPa 0,0 l/m 9,2 km/h (2 Bft) O-SO 112 3,3 C 1,2 C 8,5 km/h (2 Bft)
27.05.2013 07:55 5,4 C 87 % 1013,9 hPa 0,0 l/m 8,9 km/h (2 Bft) S-SO 157 3,4 C 1,6 C 7,2 km/h (2 Bft)
27.05.2013 08:00 5,6 C 86 % 1013,9 hPa 0,0 l/m 9,2 km/h (2 Bft) S-SO 157 3,4 C 1,2 C 21,2 km/h (4 Bft)
27.05.2013 08:05 5,7 C 86 % 1013,8 hPa 0,0 l/m 9,2 km/h (2 Bft) SO 135 3,5 C 1,2 C 14,6 km/h (3 Bft)
27.05.2013 08:10 5,6 C 86 % 1013,8 hPa 0,0 l/m 9,5 km/h (2 Bft) S 180 3,4 C 0,7 C 9,0 km/h (2 Bft)
27.05.2013 08:15 5,6 C 86 % 1013,8 hPa 0,0 l/m 8,5 km/h (2 Bft) SW 225 3,4 C 1,5 C 7,4 km/h (2 Bft)
27.05.2013 08:20 5,7 C 86 % 1013,8 hPa 0,0 l/m 7,7 km/h (2 Bft) S 180 3,5 C 2,4 C 6,4 km/h (2 Bft)
27.05.2013 08:25 5,8 C 87 % 1013,9 hPa 0,0 l/m 7,2 km/h (2 Bft) S 180 3,8 C 3,4 C 10,6 km/h (2 Bft)
27.05.2013 08:30 6,0 C 85 % 1013,9 hPa 0,0 l/m 6,8 km/h (2 Bft) S 180 3,7 C 3,9 C 8,9 km/h (2 Bft)
27.05.2013 08:35 6,1 C 85 % 1013,9 hPa 0,0 l/m 7,9 km/h (2 Bft) S 180 3,8 C 3,0 C 10,1 km/h (2 Bft)
27.05.2013 08:40 6,3 C 84 % 1013,9 hPa 0,0 l/m 7,7 km/h (2 Bft) S 180 3,8 C 3,5 C 9,8 km/h (2 Bft)
27.05.2013 08:45 6,8 C 84 % 1013,9 hPa 0,0 l/m 7,9 km/h (2 Bft) SO 135 4,3 C 3,9 C 9,5 km/h (2 Bft)
27.05.2013 08:50 7,8 C 80 % 1013,9 hPa 0,0 l/m 8,5 km/h (2 Bft) S 180 4,6 C 4,4 C 8,7 km/h (2 Bft)
27.05.2013 08:55 8,4 C 79 % 1013,9 hPa 0,0 l/m 8,5 km/h (2 Bft) S-SO 157 5,0 C 5,0 C 7,4 km/h (2 Bft)
27.05.2013 09:00 9,6 C 75 % 1013,9 hPa 0,0 l/m 8,2 km/h (2 Bft) S 180 5,4 C 6,4 C 8,5 km/h (2 Bft)
27.05.2013 09:05 9,3 C 73 % 1014,1 hPa 0,0 l/m 8,4 km/h (2 Bft) SO 135 4,7 C 6,6 C 9,0 km/h (2 Bft)
27.05.2013 09:10 8,9 C 70 % 1014,1 hPa 0,0 l/m 9,5 km/h (2 Bft) S 180 3,7 C 5,7 C 9,7 km/h (2 Bft)
27.05.2013 09:15 8,8 C 70 % 1014,1 hPa 0,0 l/m 9,7 km/h (2 Bft) S 180 3,6 C 5,4 C 12,7 km/h (3 Bft)
27.05.2013 09:20 9,2 C 67 % 1014,1 hPa 0,0 l/m 10,0 km/h (2 Bft) S 180 3,4 C 5,5 C 13,4 km/h (3 Bft)
27.05.2013 09:25 9,2 C 63 % 1014,1 hPa 0,0 l/m 11,4 km/h (2 Bft) S 180 2,5 C 4,4 C 17,4 km/h (3 Bft)
27.05.2013 09:30 9,3 C 63 % 1014,1 hPa 0,0 l/m 11,9 km/h (2 Bft) S 180 2,6 C 4,4 C 11,4 km/h (2 Bft)
27.05.2013 09:35 9,1 C 61 % 1014,1 hPa 0,0 l/m 12,2 km/h (2 Bft) S 180 2,0 C 4,1 C 15,9 km/h (3 Bft)
27.05.2013 09:40 9,1 C 60 % 1014,1 hPa 0,0 l/m 14,2 km/h (3 Bft) S 180 1,8 C 2,7 C 17,2 km/h (3 Bft)
27.05.2013 09:45 9,2 C 61 % 1014,4 hPa 0,0 l/m 13,8 km/h (3 Bft) S-SW 202 2,1 C 2,9 C 16,6 km/h (3 Bft)
27.05.2013 09:50 9,0 C 59 % 1014,4 hPa 0,0 l/m 12,7 km/h (3 Bft) S 180 1,4 C 3,5 C 19,0 km/h (3 Bft)
27.05.2013 09:55 8,8 C 58 % 1014,4 hPa 0,0 l/m 14,0 km/h (3 Bft) S 180 1,0 C 2,7 C 19,8 km/h (3 Bft)
27.05.2013 10:00 8,9 C 59 % 1014,4 hPa 0,0 l/m 14,0 km/h (3 Bft) S 180 1,3 C 2,5 C 13,4 km/h (3 Bft)
27.05.2013 10:05 8,9 C 59 % 1014,3 hPa 0,0 l/m 14,0 km/h (3 Bft) S-SW 202 1,3 C 2,5 C 19,6 km/h (3 Bft)
27.05.2013 10:10 9,0 C 58 % 1014,3 hPa 0,0 l/m 13,7 km/h (3 Bft) S 180 1,2 C 2,9 C 25,6 km/h (4 Bft)
27.05.2013 10:15 9,0 C 58 % 1014,3 hPa 0,0 l/m 13,7 km/h (3 Bft) S 180 1,2 C 2,9 C 21,6 km/h (4 Bft)
27.05.2013 10:20 9,1 C 57 % 1014,3 hPa 0,0 l/m 14,2 km/h (3 Bft) S 180 1,0 C 2,7 C 11,3 km/h (2 Bft)
27.05.2013 10:25 9,3 C 58 % 1014,6 hPa 0,0 l/m 13,5 km/h (3 Bft) S 180 1,5 C 3,2 C 11,4 km/h (2 Bft)
27.05.2013 10:30 9,5 C 59 % 1014,6 hPa 0,0 l/m 11,7 km/h (2 Bft) S-SO 157 1,9 C 4,7 C 11,3 km/h (2 Bft)
27.05.2013 10:35 9,6 C 59 % 1014,6 hPa 0,0 l/m 10,5 km/h (2 Bft) S-SO 157 2,0 C 5,9 C 9,2 km/h (2 Bft)
27.05.2013 10:40 9,4 C 57 % 1014,6 hPa 0,0 l/m 10,8 km/h (2 Bft) S-SO 157 1,3 C 5,8 C 10,6 km/h (2 Bft)
27.05.2013 10:45 9,3 C 57 % 1014,6 hPa 0,0 l/m 11,9 km/h (2 Bft) S-SO 157 1,2 C 4,7 C 10,9 km/h (2 Bft)
27.05.2013 10:50 9,5 C 58 % 1014,6 hPa 0,0 l/m 11,7 km/h (2 Bft) SO 135 1,7 C 5,1 C 6,9 km/h (2 Bft)
27.05.2013 10:55 9,7 C 57 % 1014,6 hPa 0,0 l/m 11,4 km/h (2 Bft) S-SO 157 1,6 C 5,3 C 19,0 km/h (3 Bft)
27.05.2013 11:00 10,0 C 56 % 1014,6 hPa 0,0 l/m 12,2 km/h (2 Bft) S 180 1,6 C 4,9 C 15,9 km/h (3 Bft)
27.05.2013 11:05 10,1 C 56 % 1014,9 hPa 0,0 l/m 12,6 km/h (3 Bft) S-SW 202 1,7 C 4,9 C 17,4 km/h (3 Bft)
27.05.2013 11:10 10,6 C 54 % 1014,9 hPa 0,0 l/m 12,1 km/h (2 Bft) W-SW 247 1,7 C 5,9 C 18,8 km/h (3 Bft)
27.05.2013 11:15 10,9 C 53 % 1014,9 hPa 0,0 l/m 11,7 km/h (2 Bft) S-SW 202 1,7 C 6,6 C 18,0 km/h (3 Bft)
27.05.2013 11:20 11,2 C 53 % 1014,9 hPa 0,0 l/m 12,4 km/h (3 Bft) S-SW 202 2,0 C 6,8 C 14,3 km/h (3 Bft)
27.05.2013 11:25 11,7 C 54 % 1014,8 hPa 0,0 l/m 11,3 km/h (2 Bft) SW 225 2,7 C 7,8 C 10,9 km/h (2 Bft)
27.05.2013 11:30 12,3 C 52 % 1014,8 hPa 0,0 l/m 10,1 km/h (2 Bft) S-SW 202 2,7 C 9,3 C 10,8 km/h (2 Bft)
27.05.2013 11:35 12,8 C 51 % 1014,8 hPa 0,0 l/m 10,0 km/h (2 Bft) S-SO 157 2,9 C 9,9 C 10,9 km/h (2 Bft)
27.05.2013 11:40 13,6 C 49 % 1014,8 hPa 0,0 l/m 9,3 km/h (2 Bft) S 180 3,1 C 11,2 C 12,2 km/h (2 Bft)
27.05.2013 11:45 14,4 C 47 % 1014,9 hPa 0,0 l/m 9,3 km/h (2 Bft) S-SO 157 3,2 C 11,7 C 15,4 km/h (3 Bft)
27.05.2013 11:50 15,9 C 44 % 1014,9 hPa 0,0 l/m 10,8 km/h (2 Bft) S-SW 202 3,7 C 12,2 C 8,9 km/h (2 Bft)
27.05.2013 11:55 16,5 C 41 % 1014,9 hPa 0,0 l/m 11,1 km/h (2 Bft) S-SO 157 3,2 C 13,1 C 11,6 km/h (2 Bft)
27.05.2013 12:00 17,5 C 41 % 1014,9 hPa 0,0 l/m 10,0 km/h (2 Bft) SO 135 4,1 C 15,3 C 11,1 km/h (2 Bft)
27.05.2013 12:05 17,0 C 40 % 1015,4 hPa 0,0 l/m 9,7 km/h (2 Bft) S-SW 202 3,3 C 16,0 C 15,3 km/h (3 Bft)
27.05.2013 12:10 15,2 C 42 % 1015,4 hPa 0,0 l/m 10,6 km/h (2 Bft) S 180 2,4 C 14,4 C 15,8 km/h (3 Bft)
27.05.2013 12:15 14,2 C 43 % 1015,4 hPa 0,0 l/m 11,7 km/h (2 Bft) S-SW 202 1,8 C 12,5 C 9,5 km/h (2 Bft)
27.05.2013 12:20 14,4 C 43 % 1015,4 hPa 0,0 l/m 11,7 km/h (2 Bft) S 180 2,0 C 11,4 C 12,1 km/h (2 Bft)
27.05.2013 12:25 15,8 C 41 % 1015,2 hPa 0,0 l/m 11,7 km/h (2 Bft) S-SO 157 2,6 C 11,6 C 18,2 km/h (3 Bft)
27.05.2013 12:30 16,4 C 39 % 1015,2 hPa 0,0 l/m 11,6 km/h (2 Bft) S 180 2,4 C 13,0 C 16,7 km/h (3 Bft)
27.05.2013 12:35 14,9 C 42 % 1015,2 hPa 0,0 l/m 11,1 km/h (2 Bft) SO 135 2,1 C 12,5 C 10,1 km/h (2 Bft)
27.05.2013 12:40 14,5 C 40 % 1015,2 hPa 0,0 l/m 10,8 km/h (2 Bft) S 180 1,1 C 12,2 C 14,3 km/h (3 Bft)
27.05.2013 12:45 15,8 C 40 % 1015,4 hPa 0,0 l/m 10,3 km/h (2 Bft) S 180 2,2 C 12,1 C 14,0 km/h (3 Bft)
27.05.2013 12:50 16,5 C 37 % 1015,4 hPa 0,0 l/m 11,7 km/h (2 Bft) S-SO 157 1,8 C 13,1 C 11,6 km/h (2 Bft)
27.05.2013 12:55 16,7 C 38 % 1015,4 hPa 0,0 l/m 11,4 km/h (2 Bft) W-SW 247 2,3 C 14,2 C 8,2 km/h (2 Bft)
27.05.2013 13:00 16,6 C 35 % 1015,4 hPa 0,0 l/m 10,5 km/h (2 Bft) S 180 1,1 C 15,5 C 12,7 km/h (3 Bft)
27.05.2013 13:05 16,9 C 35 % 1015,4 hPa 0,0 l/m 10,8 km/h (2 Bft) S-SW 202 1,3 C 15,2 C 16,7 km/h (3 Bft)
27.05.2013 13:10 16,8 C 36 % 1015,4 hPa 0,0 l/m 10,9 km/h (2 Bft) S-SW 202 1,7 C 15,0 C 16,3 km/h (3 Bft)
27.05.2013 13:15 16,8 C 36 % 1015,4 hPa 0,0 l/m 10,8 km/h (2 Bft) SW 225 1,7 C 15,0 C 14,8 km/h (3 Bft)
27.05.2013 13:20 17,2 C 36 % 1015,4 hPa 0,0 l/m 10,9 km/h (2 Bft) S 180 2,0 C 15,2 C 12,1 km/h (2 Bft)
27.05.2013 13:25 17,6 C 35 % 1015,6 hPa 0,0 l/m 10,5 km/h (2 Bft) S 180 2,0 C 15,9 C 14,3 km/h (3 Bft)
27.05.2013 13:30 18,1 C 35 % 1015,6 hPa 0,0 l/m 10,0 km/h (2 Bft) W-SW 247 2,4 C 16,8 C 6,4 km/h (2 Bft)
27.05.2013 13:35 17,8 C 34 % 1015,6 hPa 0,0 l/m 10,6 km/h (2 Bft) S 180 1,7 C 17,0 C 21,1 km/h (4 Bft)
27.05.2013 13:40 16,5 C 35 % 1015,6 hPa 0,0 l/m 11,1 km/h (2 Bft) S 180 1,0 C 16,4 C 21,7 km/h (4 Bft)
27.05.2013 13:45 15,8 C 34 % 1015,9 hPa 0,0 l/m 10,9 km/h (2 Bft) W-SW 247 -0,0 C 15,2 C 10,1 km/h (2 Bft)
27.05.2013 13:50 15,8 C 36 % 1015,9 hPa 0,0 l/m 9,3 km/h (2 Bft) N-NW 337 0,8 C 15,0 C 7,6 km/h (2 Bft)
27.05.2013 13:55 15,2 C 37 % 1015,9 hPa 0,0 l/m 10,1 km/h (2 Bft) S 180 0,6 C 14,3 C 16,9 km/h (3 Bft)
27.05.2013 14:00 15,2 C 34 % 1015,9 hPa 0,0 l/m 10,9 km/h (2 Bft) S-SW 202 -0,5 C 13,1 C 17,4 km/h (3 Bft)
27.05.2013 14:05 16,2 C 36 % 1015,4 hPa 0,0 l/m 10,1 km/h (2 Bft) S 180 1,1 C 13,8 C 9,3 km/h (2 Bft)
27.05.2013 14:10 17,1 C 34 % 1015,4 hPa 0,0 l/m 10,0 km/h (2 Bft) S-SW 202 1,1 C 15,3 C 13,5 km/h (3 Bft)
27.05.2013 14:15 16,8 C 35 % 1015,4 hPa 0,0 l/m 9,7 km/h (2 Bft) W-SW 247 1,3 C 15,8 C 11,1 km/h (2 Bft)
27.05.2013 14:20 16,9 C 36 % 1015,4 hPa 0,0 l/m 9,8 km/h (2 Bft) S-SW 202 1,7 C 16,1 C 13,7 km/h (3 Bft)
27.05.2013 14:25 16,4 C 36 % 1015,6 hPa 0,0 l/m 10,0 km/h (2 Bft) S 180 1,3 C 15,9 C 18,8 km/h (3 Bft)
27.05.2013 14:30 15,8 C 37 % 1015,6 hPa 0,0 l/m 10,0 km/h (2 Bft) S 180 1,1 C 15,0 C 8,0 km/h (2 Bft)
27.05.2013 14:35 15,5 C 37 % 1015,6 hPa 0,0 l/m 10,0 km/h (2 Bft) S 180 0,9 C 14,8 C 13,8 km/h (3 Bft)
27.05.2013 14:40 15,4 C 37 % 1015,6 hPa 0,0 l/m 8,7 km/h (2 Bft) S 180 0,8 C 14,9 C 6,8 km/h (2 Bft)
27.05.2013 14:45 15,3 C 37 % 1015,4 hPa 0,0 l/m 8,9 km/h (2 Bft) S 180 0,7 C 14,8 C 8,4 km/h (2 Bft)
27.05.2013 14:50 16,0 C 38 % 1015,4 hPa 0,0 l/m 8,4 km/h (2 Bft) S 180 1,7 C 15,3 C 14,3 km/h (3 Bft)
27.05.2013 14:55 16,0 C 38 % 1015,4 hPa 0,0 l/m 8,4 km/h (2 Bft) S 180 1,7 C 15,4 C 6,8 km/h (2 Bft)
27.05.2013 15:00 15,9 C 39 % 1015,4 hPa 0,0 l/m 8,0 km/h (2 Bft) SW 225 2,0 C 16,0 C 6,9 km/h (2 Bft)
27.05.2013 15:05 15,7 C 36 % 1015,3 hPa 0,0 l/m 8,0 km/h (2 Bft) S-SW 202 0,7 C 16,0 C 9,7 km/h (2 Bft)
27.05.2013 15:10 15,4 C 38 % 1015,3 hPa 0,0 l/m 9,5 km/h (2 Bft) S 180 1,2 C 15,1 C 8,2 km/h (2 Bft)
27.05.2013 15:15 16,1 C 38 % 1015,3 hPa 0,0 l/m 9,7 km/h (2 Bft) S 180 1,8 C 15,0 C 11,9 km/h (2 Bft)
27.05.2013 15:20 15,5 C 37 % 1015,3 hPa 0,0 l/m 8,9 km/h (2 Bft) W-SW 247 0,9 C 15,4 C 13,0 km/h (3 Bft)
27.05.2013 15:25 15,9 C 40 % 1015,1 hPa 0,0 l/m 8,2 km/h (2 Bft) S-SO 157 2,3 C 15,4 C 5,6 km/h (1 Bft)
27.05.2013 15:30 17,0 C 39 % 1015,1 hPa 0,0 l/m 7,4 km/h (2 Bft) SW 225 2,9 C 16,3 C 11,3 km/h (2 Bft)
27.05.2013 15:35 16,7 C 39 % 1015,1 hPa 0,0 l/m 7,1 km/h (2 Bft) S 180 2,7 C 17,2 C 8,7 km/h (2 Bft)
27.05.2013 15:40 16,0 C 37 % 1015,1 hPa 0,0 l/m 8,2 km/h (2 Bft) S 180 1,3 C 16,3 C 6,4 km/h (2 Bft)
27.05.2013 15:45 16,4 C 38 % 1015,0 hPa 0,0 l/m 7,6 km/h (2 Bft) W-SW 247 2,1 C 16,7 C 16,4 km/h (3 Bft)
27.05.2013 15:50 16,4 C 37 % 1015,0 hPa 0,0 l/m 7,6 km/h (2 Bft) S-SW 202 1,7 C 16,9 C 11,3 km/h (2 Bft)
27.05.2013 15:55 16,9 C 36 % 1015,0 hPa 0,0 l/m 8,2 km/h (2 Bft) S 180 1,7 C 17,0 C 11,7 km/h (2 Bft)
27.05.2013 16:00 16,9 C 38 % 1015,0 hPa 0,0 l/m 7,9 km/h (2 Bft) W-SW 247 2,5 C 17,7 C 15,0 km/h (3 Bft)
27.05.2013 16:05 16,5 C 36 % 1014,8 hPa 0,0 l/m 7,2 km/h (2 Bft) O 90 1,4 C 17,7 C 7,7 km/h (2 Bft)
27.05.2013 16:10 16,4 C 38 % 1014,8 hPa 0,0 l/m 7,6 km/h (2 Bft) S-SW 202 2,1 C 17,4 C 8,2 km/h (2 Bft)
27.05.2013 16:15 16,9 C 38 % 1014,8 hPa 0,0 l/m 7,6 km/h (2 Bft) S-SW 202 2,5 C 17,6 C 14,5 km/h (3 Bft)
27.05.2013 16:20 17,3 C 38 % 1014,8 hPa 0,0 l/m 8,4 km/h (2 Bft) S-SW 202 2,9 C 17,4 C 8,7 km/h (2 Bft)
27.05.2013 16:25 16,9 C 39 % 1014,6 hPa 0,0 l/m 8,5 km/h (2 Bft) S-SW 202 2,9 C 17,5 C 7,6 km/h (2 Bft)
27.05.2013 16:30 16,7 C 41 % 1014,6 hPa 0,0 l/m 6,4 km/h (2 Bft) W-SW 247 3,4 C 18,3 C 14,8 km/h (3 Bft)
27.05.2013 16:35 16,5 C 40 % 1014,6 hPa 0,0 l/m 6,1 km/h (2 Bft) S 180 2,9 C 18,0 C 5,8 km/h (2 Bft)
27.05.2013 16:40 16,4 C 40 % 1014,6 hPa 0,0 l/m 6,3 km/h (2 Bft) O-SO 112 2,8 C 17,8 C 5,5 km/h (1 Bft)
27.05.2013 16:45 16,7 C 41 % 1014,1 hPa 0,0 l/m 5,6 km/h (1 Bft) S-SW 202 3,4 C 18,0 C 10,6 km/h (2 Bft)
27.05.2013 16:50 16,8 C 41 % 1014,1 hPa 0,0 l/m 6,1 km/h (2 Bft) W-SW 247 3,5 C 19,1 C 11,1 km/h (2 Bft)
27.05.2013 16:55 15,8 C 42 % 1014,1 hPa 0,0 l/m 6,4 km/h (2 Bft) W 270 2,9 C 18,8 C 10,6 km/h (2 Bft)
27.05.2013 17:00 16,4 C 43 % 1014,1 hPa 0,0 l/m 6,9 km/h (2 Bft) S 180 3,8 C 19,0 C 10,9 km/h (2 Bft)
27.05.2013 17:05 16,4 C 41 % 1014,1 hPa 0,0 l/m 6,4 km/h (2 Bft) S-SW 202 3,1 C 20,0 C 2,9 km/h (1 Bft)
27.05.2013 17:10 15,9 C 43 % 1014,1 hPa 0,0 l/m 6,6 km/h (2 Bft) S-SO 157 3,3 C 19,6 C 10,6 km/h (2 Bft)
27.05.2013 17:15 15,5 C 45 % 1014,1 hPa 0,0 l/m 6,9 km/h (2 Bft) S 180 3,6 C 18,5 C 10,5 km/h (2 Bft)
27.05.2013 17:20 15,5 C 46 % 1014,1 hPa 0,0 l/m 6,9 km/h (2 Bft) S 180 3,9 C 19,1 C 8,9 km/h (2 Bft)
27.05.2013 17:25 15,1 C 46 % 1013,9 hPa 0,0 l/m 7,7 km/h (2 Bft) W 270 3,6 C 18,9 C 12,7 km/h (3 Bft)
27.05.2013 17:30 15,1 C 46 % 1013,9 hPa 0,0 l/m 7,7 km/h (2 Bft) W-SW 247 3,6 C 19,2 C 7,2 km/h (2 Bft)
27.05.2013 17:35 15,2 C 47 % 1013,9 hPa 0,0 l/m 7,2 km/h (2 Bft) SW 225 4,0 C 19,3 C 9,8 km/h (2 Bft)
27.05.2013 17:40 14,9 C 47 % 1013,9 hPa 0,0 l/m 7,4 km/h (2 Bft) W-SW 247 3,7 C 19,0 C 11,6 km/h (2 Bft)
27.05.2013 17:45 14,9 C 46 % 1013,9 hPa 0,0 l/m 6,8 km/h (2 Bft) W 270 3,4 C 19,3 C 9,7 km/h (2 Bft)
27.05.2013 17:50 14,7 C 47 % 1013,9 hPa 0,0 l/m 6,8 km/h (2 Bft) W 270 3,5 C 19,0 C 7,7 km/h (2 Bft)
27.05.2013 17:55 14,8 C 47 % 1013,9 hPa 0,0 l/m 7,1 km/h (2 Bft) NO 45 3,6 C 18,9 C 6,8 km/h (2 Bft)
27.05.2013 18:00 14,7 C 46 % 1013,9 hPa 0,0 l/m 6,6 km/h (2 Bft) W-NW 292 3,2 C 19,2 C 6,1 km/h (2 Bft)
27.05.2013 18:05 14,6 C 47 % 1013,9 hPa 0,0 l/m 5,5 km/h (1 Bft) W-NW 292 3,4 C 19,5 C 9,3 km/h (2 Bft)
27.05.2013 18:10 14,5 C 46 % 1013,9 hPa 0,0 l/m 5,1 km/h (1 Bft) S-SW 202 3,0 C 19,5 C 3,2 km/h (1 Bft)
27.05.2013 18:15 14,5 C 47 % 1013,9 hPa 0,0 l/m 5,5 km/h (1 Bft) W-NW 292 3,3 C 19,5 C 7,9 km/h (2 Bft)
27.05.2013 18:20 14,6 C 48 % 1013,9 hPa 0,0 l/m 5,0 km/h (1 Bft) S 180 3,7 C 19,5 C 3,7 km/h (1 Bft)
27.05.2013 18:25 14,6 C 48 % 1013,8 hPa 0,0 l/m 4,8 km/h (1 Bft) W-NW 292 3,7 C 19,5 C 7,2 km/h (2 Bft)
27.05.2013 18:30 14,7 C 48 % 1013,8 hPa 0,0 l/m 4,7 km/h (1 Bft) S 180 3,8 C 19,7 C 5,8 km/h (2 Bft)
27.05.2013 18:35 14,6 C 48 % 1013,8 hPa 0,0 l/m 4,8 km/h (1 Bft) W 270 3,7 C 19,5 C 4,3 km/h (1 Bft)
27.05.2013 18:40 14,5 C 46 % 1013,8 hPa 0,0 l/m 4,5 km/h (1 Bft) W-NW 292 3,0 C 19,7 C 4,8 km/h (1 Bft)
27.05.2013 18:45 14,6 C 47 % 1013,8 hPa 0,0 l/m 4,2 km/h (1 Bft) W 270 3,4 C 19,7 C 5,8 km/h (2 Bft)
27.05.2013 18:50 14,3 C 49 % 1013,8 hPa 0,0 l/m 4,3 km/h (1 Bft) W 270 3,7 C 20,0 C 4,5 km/h (1 Bft)
27.05.2013 18:55 14,1 C 50 % 1013,8 hPa 0,0 l/m 4,0 km/h (1 Bft) NW 315 3,8 C 20,2 C 6,1 km/h (2 Bft)
27.05.2013 19:00 14,0 C 53 % 1013,8 hPa 0,0 l/m 4,3 km/h (1 Bft) N 360 4,6 C 19,9 C 8,9 km/h (2 Bft)
27.05.2013 19:05 14,0 C 54 % 1013,6 hPa 0,0 l/m 4,7 km/h (1 Bft) N 360 4,8 C 19,7 C 5,8 km/h (2 Bft)
27.05.2013 19:10 14,2 C 53 % 1013,6 hPa 0,0 l/m 5,8 km/h (2 Bft) N-NW 337 4,8 C 19,6 C 6,3 km/h (2 Bft)
27.05.2013 19:15 14,3 C 54 % 1013,6 hPa 0,0 l/m 6,0 km/h (2 Bft) W-NW 292 5,1 C 19,5 C 9,8 km/h (2 Bft)
27.05.2013 19:20 14,4 C 54 % 1013,6 hPa 0,0 l/m 6,0 km/h (2 Bft) N-NW 337 5,2 C 19,5 C 9,8 km/h (2 Bft)
27.05.2013 19:25 14,6 C 53 % 1013,6 hPa 0,0 l/m 6,1 km/h (2 Bft) W-NW 292 5,1 C 19,3 C 7,9 km/h (2 Bft)
27.05.2013 19:30 14,0 C 53 % 1013,6 hPa 0,0 l/m 6,0 km/h (2 Bft) N-NO 22 4,6 C 19,1 C 5,1 km/h (1 Bft)
27.05.2013 19:35 13,5 C 54 % 1013,6 hPa 0,0 l/m 5,8 km/h (2 Bft) N-NW 337 4,4 C 17,9 C 4,8 km/h (1 Bft)
27.05.2013 19:40 13,3 C 55 % 1013,6 hPa 0,0 l/m 5,5 km/h (1 Bft) N-NO 22 4,5 C 16,1 C 3,1 km/h (1 Bft)
27.05.2013 19:45 13,5 C 55 % 1013,4 hPa 0,0 l/m 5,1 km/h (1 Bft) W-NW 292 4,6 C 16,7 C 6,9 km/h (2 Bft)
27.05.2013 19:50 13,6 C 55 % 1013,4 hPa 0,0 l/m 4,2 km/h (1 Bft) N-NW 337 4,7 C 17,5 C 6,0 km/h (2 Bft)
27.05.2013 19:55 13,3 C 54 % 1013,4 hPa 0,0 l/m 4,8 km/h (1 Bft) N-NW 337 4,2 C 17,4 C 8,0 km/h (2 Bft)
27.05.2013 20:00 13,1 C 56 % 1013,4 hPa 0,0 l/m 5,5 km/h (1 Bft) W-NW 292 4,5 C 16,9 C 5,0 km/h (1 Bft)
27.05.2013 20:05 12,9 C 58 % 1013,4 hPa 0,0 l/m 5,0 km/h (1 Bft) N 360 4,8 C 16,7 C 7,1 km/h (2 Bft)
27.05.2013 20:10 12,3 C 59 % 1013,4 hPa 0,0 l/m 4,3 km/h (1 Bft) NO 45 4,5 C 15,8 C 5,0 km/h (1 Bft)
27.05.2013 20:15 11,9 C 59 % 1013,4 hPa 0,0 l/m 3,9 km/h (1 Bft) NO 45 4,1 C 14,5 C 3,2 km/h (1 Bft)
27.05.2013 20:20 11,5 C 59 % 1013,4 hPa 0,0 l/m 2,3 km/h (1 Bft) N 360 3,8 C 13,1 C 3,2 km/h (1 Bft)
27.05.2013 20:25 11,2 C 60 % 1013,4 hPa 0,0 l/m 1,6 km/h (1 Bft) NO 45 3,7 C 12,6 C 0,0 km/h (0 Bft)
27.05.2013 20:30 10,7 C 62 % 1013,4 hPa 0,0 l/m 1,9 km/h (1 Bft) N-NO 22 3,7 C 11,9 C 2,4 km/h (1 Bft)
27.05.2013 20:35 10,4 C 63 % 1013,4 hPa 0,0 l/m 1,9 km/h (1 Bft) NO 45 3,7 C 11,4 C 3,1 km/h (1 Bft)
27.05.2013 20:40 10,0 C 64 % 1013,4 hPa 0,0 l/m 2,1 km/h (1 Bft) N-NO 22 3,5 C 10,7 C 3,7 km/h (1 Bft)
27.05.2013 20:45 9,7 C 65 % 1013,4 hPa 0,0 l/m 2,4 km/h (1 Bft) O 90 3,4 C 11,0 C 2,3 km/h (1 Bft)
27.05.2013 20:50 9,4 C 66 % 1013,4 hPa 0,0 l/m 2,3 km/h (1 Bft) O-SO 112 3,4 C 10,7 C 2,4 km/h (1 Bft)
27.05.2013 20:55 9,2 C 67 % 1013,4 hPa 0,0 l/m 1,9 km/h (1 Bft) NO 45 3,4 C 10,2 C 3,1 km/h (1 Bft)
27.05.2013 21:00 9,0 C 68 % 1013,4 hPa 0,0 l/m 1,8 km/h (1 Bft) NO 45 3,4 C 9,5 C 2,4 km/h (1 Bft)
27.05.2013 21:05 8,8 C 69 % 1012,8 hPa 0,0 l/m 1,9 km/h (1 Bft) O 90 3,4 C 9,2 C 0,0 km/h (0 Bft)
27.05.2013 21:10 8,8 C 70 % 1012,8 hPa 0,0 l/m 2,1 km/h (1 Bft) O-SO 112 3,6 C 8,8 C 3,2 km/h (1 Bft)
27.05.2013 21:15 8,7 C 70 % 1012,8 hPa 0,0 l/m 2,4 km/h (1 Bft) O-NO 67 3,5 C 8,7 C 3,5 km/h (1 Bft)
27.05.2013 21:20 8,7 C 70 % 1012,8 hPa 0,0 l/m 2,9 km/h (1 Bft) O 90 3,5 C 8,5 C 3,4 km/h (1 Bft)
27.05.2013 21:25 8,5 C 70 % 1012,7 hPa 0,0 l/m 2,7 km/h (1 Bft) NO 45 3,3 C 8,5 C 2,6 km/h (1 Bft)
27.05.2013 21:30 8,1 C 71 % 1012,7 hPa 0,0 l/m 1,6 km/h (1 Bft) NO 45 3,2 C 8,2 C 0,0 km/h (0 Bft)
27.05.2013 21:35 7,8 C 71 % 1012,7 hPa 0,0 l/m 0,6 km/h (0 Bft) O 90 2,9 C 7,7 C 0,0 km/h (0 Bft)
27.05.2013 21:40 7,2 C 72 % 1012,7 hPa 0,0 l/m 0,2 km/h (0 Bft) O-NO 67 2,5 C 7,1 C 0,0 km/h (0 Bft)
27.05.2013 21:45 7,2 C 73 % 1012,7 hPa 0,0 l/m 0,2 km/h (0 Bft) O 90 2,7 C 6,9 C 0,0 km/h (0 Bft)
27.05.2013 21:50 6,9 C 74 % 1012,7 hPa 0,0 l/m 0,0 km/h (0 Bft) SO 135 2,6 C 6,5 C 0,0 km/h (0 Bft)
27.05.2013 21:55 6,8 C 75 % 1012,7 hPa 0,0 l/m 0,0 km/h (0 Bft) O 90 2,7 C 6,3 C 0,0 km/h (0 Bft)
27.05.2013 22:00 6,9 C 76 % 1012,7 hPa 0,0 l/m 0,0 km/h (0 Bft) O 90 3,0 C 6,0 C 0,0 km/h (0 Bft)
27.05.2013 22:05 7,0 C 75 % 1012,6 hPa 0,0 l/m 0,0 km/h (0 Bft) O 90 2,9 C 5,9 C 0,0 km/h (0 Bft)
27.05.2013 22:10 5,9 C 76 % 1012,6 hPa 0,0 l/m 0,0 km/h (0 Bft) O-SO 112 2,0 C 5,5 C 0,0 km/h (0 Bft)
27.05.2013 22:15 5,9 C 76 % 1012,6 hPa 0,0 l/m 0,0 km/h (0 Bft) O-SO 112 2,0 C 5,5 C 0,0 km/h (0 Bft)
27.05.2013 22:20 6,1 C 77 % 1012,6 hPa 0,0 l/m 0,0 km/h (0 Bft) NO 45 2,4 C 5,3 C 0,0 km/h (0 Bft)
27.05.2013 22:25 6,0 C 77 % 1012,7 hPa 0,0 l/m 0,0 km/h (0 Bft) O-SO 112 2,3 C 5,2 C 0,0 km/h (0 Bft)
27.05.2013 22:30 5,4 C 78 % 1012,7 hPa 0,0 l/m 0,0 km/h (0 Bft) S-SW 202 1,9 C 5,0 C 0,0 km/h (0 Bft)
27.05.2013 22:35 5,1 C 78 % 1012,7 hPa 0,0 l/m 0,0 km/h (0 Bft) W-SW 247 1,6 C 4,8 C 0,0 km/h (0 Bft)
27.05.2013 22:40 5,2 C 79 % 1012,7 hPa 0,0 l/m 0,0 km/h (0 Bft) O 90 1,9 C 4,4 C 0,0 km/h (0 Bft)
27.05.2013 22:45 5,3 C 79 % 1012,5 hPa 0,0 l/m 0,0 km/h (0 Bft) O 90 2,0 C 4,4 C 0,0 km/h (0 Bft)
27.05.2013 22:50 4,9 C 79 % 1012,5 hPa 0,0 l/m 0,0 km/h (0 Bft) O-NO 67 1,6 C 4,1 C 0,0 km/h (0 Bft)
27.05.2013 22:55 4,9 C 80 % 1012,5 hPa 0,0 l/m 0,0 km/h (0 Bft) O 90 1,7 C 4,0 C 0,0 km/h (0 Bft)
27.05.2013 23:00 4,7 C 80 % 1012,5 hPa 0,0 l/m 0,0 km/h (0 Bft) O-NO 67 1,6 C 3,9 C 0,0 km/h (0 Bft)
27.05.2013 23:05 4,7 C 81 % 1012,4 hPa 0,0 l/m 0,0 km/h (0 Bft) O-SO 112 1,7 C 3,8 C 0,0 km/h (0 Bft)
27.05.2013 23:10 4,4 C 81 % 1012,4 hPa 0,0 l/m 0,0 km/h (0 Bft) O 90 1,4 C 3,6 C 0,0 km/h (0 Bft)
27.05.2013 23:15 4,4 C 81 % 1012,4 hPa 0,0 l/m 0,0 km/h (0 Bft) O 90 1,4 C 3,6 C 0,0 km/h (0 Bft)
27.05.2013 23:20 4,2 C 82 % 1012,4 hPa 0,0 l/m 0,0 km/h (0 Bft) N 360 1,4 C 3,4 C 0,0 km/h (0 Bft)
27.05.2013 23:25 4,0 C 82 % 1012,5 hPa 0,0 l/m 0,0 km/h (0 Bft) W-NW 292 1,2 C 3,4 C 0,0 km/h (0 Bft)
27.05.2013 23:30 3,9 C 83 % 1012,5 hPa 0,0 l/m 0,0 km/h (0 Bft) W 270 1,3 C 3,4 C 0,0 km/h (0 Bft)
27.05.2013 23:35 3,9 C 84 % 1012,5 hPa 0,0 l/m 0,0 km/h (0 Bft) O-NO 67 1,4 C 3,3 C 0,0 km/h (0 Bft)
27.05.2013 23:40 3,8 C 84 % 1012,5 hPa 0,0 l/m 0,0 km/h (0 Bft) N-NO 22 1,4 C 3,2 C 0,0 km/h (0 Bft)
27.05.2013 23:45 3,7 C 84 % 1012,2 hPa 0,0 l/m 0,0 km/h (0 Bft) O-NO 67 1,3 C 3,1 C 0,0 km/h (0 Bft)
27.05.2013 23:50 3,9 C 84 % 1012,2 hPa 0,0 l/m 0,0 km/h (0 Bft) N 360 1,4 C 3,0 C 0,0 km/h (0 Bft)
27.05.2013 23:55 3,8 C 85 % 1012,2 hPa 0,0 l/m 0,0 km/h (0 Bft) N-NO 22 1,5 C 3,1 C 0,0 km/h (0 Bft)
_ Min-Zeit 23:45 14:10 05:40 - 23:55 - - 14:00 01:20 23:55
Minimum _ 3,7 C 34 % 1012,1 hPa - 0,0 km/h (0 Bft) - - -0,5 C -4,6 C 0,0 km/h (0 Bft)
_ Max-Zeit 13:30 01:00 14:00 04:50 10:20 - - 09:00 18:55 04:10
Maximum _ 18,1 C 93 % 1015,9 hPa 0,7 l/m 14,2 km/h
S (3 Bft)
- - 5,4 C 20,2 C 32,8 km/h
W-SW (5 Bft)
Durchschnitt _ 9,4 C 67 % 1013,7 hPa #2,1 l/m 7,8 km/h (2 Bft) S - 2,7 C 7,4 C 9,9 km/h (2 Bft)